Location: Unspecified
(56.5167°N, 0.0000°E)
Time: 16:01:50
(UTC+02:00)

ISS - Visible Passes

Search period start: 29 July 2016 00:00
Search period end: 08 August 2016 00:00
Orbit: 401 x 404 km, 51.6° (Epoch: 29 July)

Date Brightness Start Highest point End Pass type
(mag) Time Alt. Az. Time Alt. Az. Time Alt. Az.
29 Jul -2.5 00:22:05 10° SW 00:24:57 29° SSE 00:27:50 10° ESE visible
29 Jul -2.6 01:57:57 10° WSW 02:00:32 32° SSW 02:00:32 32° SSW visible
29 Jul -2.2 23:29:29 10° SW 23:32:11 24° SSE 23:34:53 10° ESE visible
30 Jul -2.7 01:05:07 10° WSW 01:08:08 35° S 01:09:02 28° SE visible
30 Jul -0.9 02:41:25 10° WSW 02:41:37 11° WSW 02:41:37 11° WSW visible
31 Jul -2.7 00:12:19 10° WSW 00:15:19 33° S 00:17:40 14° ESE visible
31 Jul -1.9 01:48:26 10° WSW 01:50:15 23° SW 01:50:15 23° SW visible
31 Jul -2.4 23:19:36 10° SW 23:22:31 30° SSE 23:25:26 10° ESE visible
01 Aug -2.6 00:55:32 10° WSW 00:58:30 32° S 00:58:56 31° S visible
02 Aug -2.6 00:02:41 10° WSW 00:05:41 34° S 00:07:38 18° SE visible
02 Aug -1.4 01:39:02 10° WSW 01:40:13 17° WSW 01:40:13 17° WSW visible
02 Aug -2.6 23:09:52 10° WSW 23:12:52 34° S 23:15:52 10° ESE visible
03 Aug -2.3 00:46:01 10° WSW 00:48:51 27° SSW 00:48:56 27° SSW visible
03 Aug -2.4 23:53:06 10° WSW 23:56:03 31° S 23:57:40 20° SE visible
04 Aug -0.9 01:29:50 10° WSW 01:30:15 12° WSW 01:30:15 12° WSW visible
04 Aug -2.5 23:00:13 10° WSW 23:03:13 34° S 23:06:14 10° ESE visible
05 Aug -1.8 00:36:37 10° WSW 00:39:00 20° SSW 00:39:00 20° SSW visible
05 Aug -2.1 23:43:36 10° WSW 23:46:22 25° SSW 23:47:47 19° SSE visible
06 Aug -2.3 22:50:39 10° WSW 22:53:33 30° SSW 22:56:29 10° SE visible
07 Aug -1.2 00:27:31 10° WSW 00:29:09 14° SW 00:29:09 14° SW visible
07 Aug -1.5 23:34:13 10° WSW 23:36:37 19° SSW 23:37:58 15° S visible
